Location: Berville
(49.1893°N, 2.0748°E)
Time: 18:08:54
(UTC+00:00)

CZ-4 R/B - Pass Details

Date: 08 February 2023
Orbit: 526 x 586 km, 97.7° (Epoch: 29 March)

Event Time Altitude Azimuth Distance (km) Brightness Sun altitude
Rises 17:52:49 0° 132° (SE) 2,783 4.6 -9.1°
Reaches altitude 10° 17:55:15 10° 119° (ESE) 1,879 3.6 -9.5°
Maximum altitude 17:58:33 24° 65° (ENE) 1,196 2.5 -10.0°
Drops below altitude 10° 18:01:48 10° 11° (N) 1,860 3.8 -10.6°
Sets 18:04:12 0° 358° (N) 2,749 4.8 -11.0°
